Regional Weather Roundup
Issued by NWS

Home | Current Version | Previous Version | Graphics & Text | Print | Product List | Glossary On
Versions: 1 2 3 4 5 6 7 8 9 10 11 12 13 14 15 16 17 18 19 20 21 22 23 24 25 26 27 28 29 30 31 32 33 34 35 36 37 38 39 40 41 42 43 44 45 46 47 48 49 50
000
ASUS43 KBIS 271702
RWRND

NORTH DAKOTA REGIONAL WEATHER ROUNDUP
NATIONAL WEATHER SERVICE BISMARCK ND
1200 PM CDT WED JUL 27 2016

NOTE: "FAIR" INDICATES FEW OR NO CLOUDS BELOW 12,000 FEET WITH NO
SIGNIFICANT WEATHER AND/OR OBSTRUCTIONS TO VISIBILITY.


NDZ001>003-009>011-017-271800-
NORTHWEST NORTH DAKOTA

CITY           SKY/WX    TMP DP  RH WIND       PRES   REMARKS
WILLISTON      CLOUDY    72  58  61 CALM      30.13S
MINOT          MOSUNNY   76  59  55 NE6       30.14R
MINOT AFB      CLOUDY    72  59  64 E9        30.14R
$$

NDZ018>021-031>035-040>046-271800-
SOUTHWEST NORTH DAKOTA

CITY           SKY/WX    TMP DP  RH WIND       PRES   REMARKS
BISMARCK       CLOUDY    74  64  71 E7        30.12R
DICKINSON      PTSUNNY   67  61  81 SE7       30.13S
GARRISON         N/A     73  63  70 E9        30.13S
HETTINGER ARPT CLOUDY    74  62  66 E7        30.14F
$$

NDZ004>008-012>016-024-026-027-054-271800-
NORTHEAST NORTH DAKOTA

CITY           SKY/WX    TMP DP  RH WIND       PRES   REMARKS
GRAND FORKS    MOSUNNY   73  59  61 N15       30.05F
GRND FRKS AFB  SUNNY     73  60  62 N15       30.07S
DEVILS LAKE    CLOUDY    69  57  65 N13G18    30.14R
$$

NDZ022-023-025-028>030-036>039-047>053-271800-
SOUTHEAST NORTH DAKOTA

CITY           SKY/WX    TMP DP  RH WIND       PRES   REMARKS
FARGO          SUNNY     76  58  53 N14       30.03S
JAMESTOWN      SUNNY     74  61  63 N12       30.11R
$$





USA.gov is the U.S. government's official web portal to all federal, state and local government web resources and services.